Tracking 25963 objects as of 13-Aug-2022
HD Live streaming from Space Station
objects crossing your sky now

STARLINK-4110

Track STARLINK-4110 now!
10-day predictions
STARLINK-4110 is classified as:


NORAD ID: 53166
Int'l Code: 2022-083AL
Perigee: 355.0 km
Apogee: 358.6 km
Inclination: 53.2 °
Period: 91.5 minutes
Semi major axis: 6727 km
RCS: Unknown
Launch date: July 17, 2022
Source: United States (US)
Launch site: AIR FORCE EASTERN TEST RANGE (AFETR)
aabbcc
Your satellite tracking list
Your tracking list is empty




NASA's NSSDC Master Catalog

Two Line Element Set (TLE):
1 53166U 22083AL  22224.83335648 -.00032406  00000-0 -22704-3 0  9993
2 53166  53.2163 276.9464 0002647  15.9807 125.0927 15.73226864  4789
Source of the keplerian elements: AFSPC